• Join FlightAware (Why Join?)
  • Login
  • US Flag 
07:01PM EDT


 

Airport Tracker/Info


-or-


 

Live Flight TrackerFlight Track Log ✈ UAL997 ✈ 15-May-2013 ✈ KBOS - KEWR

Flight Track Log - Related Links

Times and Time Zones

All times are in EDT time to prevent confusion due to time zone crossing. See the UAL997 flight status page for this flight to view local times or setup timezone preferences in your user account.

Time Position Orientation Groundspeed Altitude Reporting Facility
EDT Latitude Longitude Course Direction KTS MPH feet Rate Location/Type
01:19PM 42.3500 -71.0167 228° Southwest 140 161 700  Level KA90
01:19PM 42.3333 -71.0167 180° South 146 168 1,900 2,160 Climbing KA90
01:20PM 42.3167 -70.9333 105° East 235 270 4,200 2,640 Climbing KA90
01:21PM 42.4248 -70.7744 114° Southeast  Level FlightAware Approximate
01:21PM 42.3333 -70.8333 77° East 290 334 7,200  Level KA90
01:22PM 42.3635 -70.7294 172° South  Level FlightAware Approximate
01:22PM 42.3000 -70.7333 114° Southeast 318 366 10,500  Level KA90
01:23PM 42.2914 -70.7296 228° Southwest  Level FlightAware Approximate
01:23PM 42.2603 -70.7233 169° South 342 394 10,800  Level Boston Center
01:24PM 42.2398 -70.8070 228° Southwest  Level FlightAware Approximate
01:24PM 42.1861 -70.7731 206° Southwest 353 406 13,500  Level Boston Center
01:25PM 42.1686 -70.8797 258° West 288 331 14,000 180 Climbing Boston Center
01:26PM 42.1539 -71.0231 262° West 314 361 14,000  Level Boston Center
01:27PM 42.1389 -71.1550 261° West 325 374 14,000  Level Boston Center
01:28PM 42.1297 -71.2617 263° West 330 380 14,000  Level Boston Center
01:29PM 42.1183 -71.3933 263° West 330 380 14,000  Level Boston Center
01:30PM 42.1089 -71.5025 263° West 330 380 14,000  Level Boston Center
01:31PM 42.0972 -71.6231 263° West 330 380 14,000  Level Boston Center
01:32PM 42.0817 -71.7575 261° West 330 380 14,000  Level Boston Center
01:33PM 42.0656 -71.8642 259° West 330 380 14,100  Climbing Boston Center
01:34PM 42.0453 -71.9928 258° West 330 380 14,100  Level Boston Center
01:35PM 42.0311 -72.0964 260° West 317 365 14,100  Level Boston Center
01:36PM 42.0125 -72.2139 258° West 306 352 14,100 -60 Level Boston Center
01:37PM 41.9981 -72.3172 259° West 306 352 14,000 -60 Descending Boston Center
01:38PM 41.9794 -72.4428 259° West 312 359 14,000  Level Boston Center
01:39PM 41.9647 -72.5406 259° West 312 359 14,000  Level Boston Center
01:40PM 41.9458 -72.6661 259° West 312 359 14,000  Level Boston Center
01:41PM 41.9183 -72.7778 252° West 317 365 14,000  Level Boston Center
01:42PM 41.8931 -72.8892 253° West 317 365 14,000  Level Boston Center
01:43PM 41.8697 -72.9922 253° West 317 365 14,000 -60 Level Boston Center
01:44PM 41.8483 -73.0811 252° West 289 333 13,900 -720 Descending Boston Center
01:45PM 41.8247 -73.1867 253° West 284 327 12,500 -960 Descending Boston Center
01:46PM 41.7969 -73.2950 251° West 265 305 12,000 -780 Descending Boston Center
01:47PM 41.7756 -73.3811 252° West 257 296 11,000 -1,020 Descending Boston Center
01:48PM 41.7517 -73.4725 251° West 251 289 10,000 -540 Descending Boston Center
01:49PM 41.7300 -73.5639 252° West 256 295 10,000  Level Boston Center
01:50PM 41.7061 -73.6553 251° West 261 300 10,000  Level Boston Center
01:51PM 41.6842 -73.7439 252° West 266 306 10,000  Level Boston Center
01:52PM 41.6581 -73.8489 252° West 261 300 10,000  Level Boston Center
01:53PM 41.6403 -73.9289 253° West 261 300 10,000  Level Boston Center
01:54PM 41.6181 -74.0256 253° West 261 300 10,000 -180 Level Boston Center
01:55PM 41.5961 -74.1111 251° West 256 295 9,700 -1,020 Descending Boston Center
01:56PM 41.5761 -74.1939 252° West 256 295 8,000 -1,380 Descending Boston Center
01:57PM 41.5478 -74.2653 242° Southwest 256 295 7,000 -420 Descending Boston Center
01:59PM 41.4333 -74.3667 214° Southwest 257 296 7,000  Level New York TRACON
02:00PM 41.3667 -74.4000 201° Southwest 261 300 7,000  Level New York TRACON
02:01PM 41.3000 -74.4167 191° South 264 304 7,000  Level New York TRACON
02:02PM 41.2333 -74.4500 201° Southwest 265 305 7,000 -540 Level New York TRACON
02:03PM 41.1667 -74.4667 191° South 260 299 6,000 -960 Descending New York TRACON
02:04PM 41.1000 -74.4333 159° South 282 325 5,100 -480 Descending New York TRACON
02:05PM 41.0500 -74.3500 128° Southeast 280 322 5,000 -60 Descending New York TRACON
02:06PM 41.0000 -74.2833 135° Southeast 268 308 5,000 -120 Level New York TRACON
02:07PM 40.9500 -74.2167 135° Southeast 215 247 4,800 -540 Descending New York TRACON
02:08PM 40.9500 -74.1500 90° East 205 236 4,000 -780 Descending New York TRACON
02:09PM 40.9333 -74.0833 108° East 193 222 3,300 -480 Descending New York TRACON
02:10PM 40.8833 -74.0500 153° Southeast 164 189 3,000 -180 Descending New York TRACON
02:11PM 40.8500 -74.0667 201° Southwest 161 185 3,000  Level New York TRACON